Flag for Australia Weather past 2 weeks in Bairnsdale, Victoria, Australia

Now
55 °F

Cool.


Feels Like: 54 °F
Forecast: 50 / 66 °F
Wind: 5 mph from West

Location: Bairnsdale Airport

Current Time: Dec 18, 2014 at 11:35:42 PM

Latest Report: Dec 18, 2014 at 10:00 PM


Visibility: N/A

Pressure: 29.86 "Hg

Humidity: 95%

Dew point: 53 °F

Location of BairnsdaleLocation

Historic Weather in Bairnsdale — Graph

°F

Bairnsdale temperature yesterday

Maximum temperature yesterday: 68 °F (at 1:00 PM)
Minimum temperature yesterday: 52 °F (at 6:00 AM)
Average temperature yesterday: 60 °F

Past Weeks' High & Low Weather Summary

 TemperatureHumidityPressure
High91 °F (Dec 16, 1:00 PM)100% (Dec 3, 10:00 PM)30.20 "Hg (Dec 3, 10:00 PM)
Low48 °F (Dec 13, 4:00 AM)29% (Dec 16, 1:00 PM)29.26 "Hg (Dec 16, 4:00 PM)
Average64 °F80%29.82 "Hg
* Reported Dec 3 10:00 PM — Dec 18 10:00 PM, Bairnsdale, Weather by CustomWeather, © 2014

Note: Actual official high and low records may vary slightly from our data, if they occured in-between our weather recording intervals... More about our weather records

Advertising

Bairnsdale weather history for previous 24 hours

 ConditionsComfort  
Time TempWeatherWind HumidityBarometerVisibility
10:00 PM
Dec 18
55 °FCool.5 mph95%29.86 "HgN/A
9:00 PM55 °FFog.6 mph97%29.85 "HgN/A
7:00 PM62 °FCool.15 mph70%29.76 "HgN/A
6:00 PM63 °FOvercast.13 mph66%29.70 "HgN/A
4:00 PM69 °FMild.24 mph56%29.67 "HgN/A
3:00 PM78 °FScattered clouds.12 mph33%29.61 "HgN/A
1:00 PM80 °FPleasantly warm.7 mph30%29.62 "HgN/A
12:00 PM79 °FPleasantly warm.8 mph30%29.64 "HgN/A
10:00 AM73 °FMild.7 mph40%29.67 "HgN/A
9:00 AM66 °FMild.5 mph60%29.70 "HgN/A
7:00 AM53 °FCool.6 mph87%29.71 "HgN/A
6:00 AM51 °FCool.5 mph87%29.70 "HgN/A
4:00 AM53 °FCool.6 mph82%29.70 "HgN/A
3:00 AM53 °FCool.7 mph81%29.72 "HgN/A
1:00 AM56 °FCool.6 mph74%29.79 "HgN/A
12:00 AM56 °FOvercast.6 mph74%29.80 "HgN/A
Weather by CustomWeather, © 2014

See weather overviewHow to use our weather pages